Total_Precipitation_Accumulation
1.58 1.69 1.84 1.99 2.06 2.10 2.25 2.41 2.71 3.07 3.20 3.15 3.13 3.08 2.76 2.48 2.15 1.92 1.93 2.01 2.05 2.22 2.47 2.21 2.50 2.65 2.63 2.70 2.72 2.85 2.71 2.54 2.73 2.57 2.05 1.58 1.30 1.13 0.99 1.00 1.06 1.01 1.07
1.65 1.80 1.96 2.04 2.01 2.12 2.34 2.61 2.90 3.22 3.14 3.27 3.46 3.37 3.10 2.52 2.17 1.98 1.94 1.99 2.04 2.12 2.28 2.54 2.58 2.66 2.66 2.68 2.65 2.66 2.45 2.27 2.62 2.60 2.35 1.76 1.38 1.07 0.90 1.01 0.95 0.98 1.16
1.37 1.50 1.58 1.68 1.93 2.26 2.62 2.86 3.05 3.11 3.09 3.22 3.32 3.04 2.79 2.36 2.23 2.21 2.11 2.05 2.17 2.22 2.35 2.52 2.60 2.52 2.44 2.46 2.56 2.47 2.31 2.14 2.28 2.54 2.51 1.99 1.49 1.15 0.95 0.97 1.00 1.21 1.28
1.21 1.30 1.42 1.66 2.00 2.32 2.68 3.00 2.99 2.96 2.91 3.01 3.08 2.92 2.64 2.36 2.26 2.28 2.08 1.93 1.91 1.98 2.09 2.17 2.32 2.37 2.36 2.32 2.30 2.27 2.27 2.17 2.04 2.29 2.36 2.20 1.90 1.61 1.13 0.91 0.96 1.18 1.24
1.09 1.21 1.35 1.56 1.74 2.04 2.34 2.61 2.80 2.84 2.76 2.72 2.69 2.66 2.46 2.21 2.08 2.02 1.90 1.85 1.88 1.80 1.81 1.92 2.10 2.16 2.08 2.07 2.21 2.37 2.33 2.16 1.99 2.09 2.20 2.33 2.25 1.93 1.55 1.11 1.03 1.05 1.00
1.24 1.28 1.47 1.59 1.66 1.84 2.10 2.27 2.40 2.45 2.41 2.32 2.28 2.30 2.24 2.18 2.03 1.88 1.89 1.92 1.86 1.74 1.68 1.71 1.82 1.90 1.88 1.86 1.90 2.00 2.03 2.00 2.07 2.09 2.10 2.21 2.19 2.07 1.94 1.51 1.27 1.13 0.87
1.32 1.39 1.55 1.64 1.69 1.72 1.77 1.83 1.87 1.92 1.86 1.78 1.74 1.78 1.80 1.82 1.75 1.73 1.79 1.83 1.76 1.68 1.65 1.59 1.54 1.55 1.58 1.67 1.82 1.84 1.84 1.92 2.02 2.02 2.06 2.00 1.94 2.01 2.00 1.80 1.50 1.30 0.98
1.17 1.28 1.36 1.27 1.21 1.23 1.28 1.31 1.32 1.34 1.31 1.33 1.37 1.40 1.49 1.54 1.53 1.64 1.65 1.70 1.68 1.63 1.52 1.39 1.34 1.33 1.36 1.44 1.61 1.77 1.79 1.86 1.91 1.87 1.91 1.81 1.74 1.87 1.85 1.80 1.79 1.60 1.40
0.82 0.84 0.86 0.89 0.95 0.97 0.97 0.97 1.01 1.02 0.97 0.97 1.06 1.14 1.20 1.28 1.30 1.40 1.43 1.41 1.41 1.34 1.30 1.27 1.26 1.22 1.25 1.29 1.32 1.45 1.47 1.56 1.62 1.69 1.67 1.58 1.58 1.68 1.72 1.81 1.87 1.80 1.64
0.62 0.59 0.59 0.63 0.67 0.70 0.75 0.79 0.88 0.97 0.95 0.88 0.88 0.90 0.95 1.00 1.10 1.17 1.19 1.23 1.26 1.23 1.17 1.18 1.18 1.13 1.11 1.13 1.16 1.20 1.25 1.23 1.29 1.46 1.49 1.48 1.50 1.60 1.64 1.69 1.82 1.92 1.90
0.38 0.33 0.34 0.39 0.46 0.59 0.67 0.69 0.80 0.88 0.84 0.74 0.73 0.77 0.80 0.83 0.89 0.96 0.98 1.03 1.09 1.16 1.17 1.14 1.10 1.01 0.95 0.94 0.97 0.98 1.08 1.09 1.08 1.16 1.19 1.26 1.37 1.51 1.57 1.60 1.66 1.86 2.02
0.23 0.21 0.21 0.25 0.33 0.42 0.47 0.55 0.64 0.74 0.76 0.72 0.72 0.76 0.79 0.79 0.79 0.82 0.81 0.82 0.88 0.91 0.93 0.93 0.99 1.02 1.00 0.98 0.96 0.93 0.91 0.96 0.99 1.05 1.15 1.21 1.34 1.45 1.44 1.52 1.60 1.79 2.00
0.17 0.16 0.17 0.21 0.24 0.29 0.36 0.43 0.48 0.56 0.64 0.66 0.71 0.77 0.77 0.75 0.79 0.82 0.82 0.80 0.80 0.82 0.82 0.83 0.86 0.88 0.97 1.07 1.10 1.07 1.07 1.10 1.02 1.08 1.17 1.16 1.20 1.28 1.31 1.42 1.55 1.70 1.85
0.16 0.14 0.15 0.16 0.16 0.19 0.26 0.31 0.35 0.41 0.49 0.57 0.72 0.85 0.91 0.92 0.92 0.88 0.88 0.86 0.82 0.84 0.83 0.78 0.79 0.82 0.83 0.90 1.04 1.10 1.10 1.07 1.02 1.02 1.02 0.99 1.00 1.08 1.16 1.23 1.39 1.54 1.68
0.15 0.12 0.11 0.10 0.11 0.14 0.17 0.25 0.33 0.37 0.44 0.59 0.80 0.91 0.90 0.85 0.84 0.83 0.89 0.87 0.79 0.77 0.81 0.74 0.71 0.77 0.81 0.79 0.81 0.93 0.96 0.96 0.94 0.96 0.89 0.77 0.78 0.82 0.86 0.92 1.15 1.31 1.45
0.13 0.11 0.10 0.09 0.08 0.08 0.10 0.17 0.27 0.34 0.43 0.55 0.67 0.71 0.76 0.78 0.75 0.70 0.68 0.71 0.73 0.73 0.73 0.68 0.66 0.67 0.61 0.62 0.59 0.61 0.70 0.76 0.78 0.82 0.83 0.75 0.65 0.60 0.62 0.65 0.77 0.95 1.11
0.09 0.09 0.08 0.08 0.07 0.07 0.10 0.16 0.23 0.29 0.40 0.48 0.53 0.61 0.72 0.74 0.68 0.59 0.63 0.70 0.72 0.71 0.69 0.64 0.60 0.60 0.58 0.47 0.41 0.41 0.51 0.61 0.64 0.68 0.74 0.65 0.58 0.57 0.53 0.57 0.65 0.70 0.78
0.06 0.06 0.06 0.06 0.05 0.07 0.12 0.16 0.22 0.28 0.39 0.49 0.57 0.62 0.73 0.74 0.69 0.67 0.67 0.68 0.68 0.68 0.69 0.64 0.61 0.64 0.60 0.46 0.38 0.34 0.35 0.48 0.58 0.61 0.66 0.68 0.68 0.61 0.59 0.58 0.63 0.60 0.60
0.05 0.05 0.04 0.05 0.09 0.11 0.13 0.18 0.26 0.31 0.39 0.50 0.62 0.72 0.80 0.80 0.75 0.73 0.71 0.69 0.67 0.63 0.63 0.65 0.66 0.67 0.64 0.46 0.36 0.34 0.41 0.53 0.57 0.60 0.60 0.63 0.68 0.62 0.52 0.53 0.58 0.61 0.62
0.08 0.08 0.07 0.10 0.16 0.17 0.18 0.25 0.32 0.41 0.52 0.60 0.69 0.76 0.81 0.84 0.81 0.80 0.78 0.74 0.73 0.66 0.62 0.64 0.67 0.67 0.71 0.51 0.32 0.29 0.42 0.59 0.65 0.73 0.72 0.58 0.54 0.53 0.41 0.44 0.53 0.54 0.55
0.09 0.12 0.16 0.24 0.25 0.23 0.28 0.36 0.41 0.49 0.55 0.64 0.72 0.81 0.89 0.86 0.83 0.86 0.88 0.86 0.83 0.82 0.75 0.68 0.68 0.70 0.66 0.52 0.33 0.28 0.40 0.60 0.72 0.75 0.77 0.69 0.49 0.41 0.36 0.35 0.43 0.48 0.47
0.08 0.15 0.26 0.31 0.29 0.33 0.46 0.54 0.56 0.55 0.59 0.69 0.78 0.89 0.96 0.81 0.75 0.91 0.95 0.95 0.95 0.95 0.91 0.85 0.76 0.74 0.71 0.53 0.38 0.31 0.34 0.48 0.69 0.81 0.80 0.67 0.48 0.40 0.37 0.33 0.36 0.35 0.34
0.12 0.14 0.23 0.29 0.32 0.42 0.59 0.76 0.76 0.69 0.69 0.77 0.88 0.92 0.94 0.98 1.00 0.98 0.99 1.01 1.00 1.02 1.00 0.97 0.91 0.86 0.85 0.75 0.48 0.38 0.36 0.42 0.57 0.69 0.73 0.65 0.46 0.40 0.41 0.41 0.35 0.31 0.31
0.12 0.14 0.20 0.29 0.39 0.48 0.64 0.79 0.82 0.80 0.83 0.89 0.94 0.98 1.01 1.02 1.07 1.14 1.12 1.08 1.04 1.06 1.07 1.01 0.99 0.98 0.98 0.92 0.74 0.60 0.51 0.50 0.52 0.58 0.61 0.64 0.57 0.46 0.49 0.50 0.41 0.35 0.40
0.10 0.14 0.23 0.35 0.42 0.49 0.60 0.69 0.74 0.85 0.95 0.99 1.01 1.05 1.07 1.10 1.14 1.16 1.11 1.03 1.00 0.90 0.94 0.96 0.95 0.97 0.98 0.87 0.76 0.73 0.71 0.66 0.63 0.62 0.71 0.72 0.76 0.68 0.64 0.65 0.59 0.53 0.55
0.12 0.18 0.24 0.32 0.39 0.46 0.56 0.65 0.77 0.92 1.07 1.10 1.03 1.02 1.01 1.05 1.10 1.10 0.96 0.74 0.67 0.61 0.58 0.63 0.66 0.68 0.65 0.58 0.56 0.60 0.60 0.60 0.63 0.63 0.76 0.85 0.88 0.85 0.84 0.82 0.78 0.75 0.69